RH
83 82 84 85 84 84 86 86 87 87 87 88 88 89 92 92 90 70 25 27 34 59 59 20 21 23 37 41 38 47 61 69 62 61 59 60 65 58 57 67 65 65 73 74 80
82 83 84 85 85 86 84 86 87 87 88 88 88 89 91 92 75 34 35 69 58 55 18 22 20 24 28 31 34 48 63 54 45 48 59 59 60 66 67 74 76 77 80 82 85
82 82 84 84 84 85 86 86 86 87 88 88 88 89 91 94 27 16 71 69 49 41 22 23 23 23 27 29 34 42 46 37 39 40 46 60 65 57 72 82 73 84 92 88 88
82 82 82 83 84 84 84 85 86 87 88 87 86 89 92 72 23 20 72 70 56 26 20 18 19 22 27 30 27 36 34 36 41 40 47 59 61 63 62 56 58 69 78 82 85
81 81 81 82 82 84 84 85 87 88 88 86 85 89 64 21 18 15 68 54 30 23 21 20 20 24 25 26 25 25 31 34 34 39 43 48 60 60 62 59 62 67 70 76 78
80 81 81 81 82 83 84 85 88 88 87 85 84 89 62 20 13 17 17 26 27 22 20 21 19 21 25 26 25 21 24 24 33 35 41 42 56 49 62 59 66 69 70 71 71
81 81 81 81 81 82 85 87 88 87 86 84 84 73 53 12 17 21 19 26 29 22 22 18 19 19 22 24 22 21 26 25 27 33 37 38 55 52 62 57 68 67 67 65 64
81 82 81 81 80 82 85 88 88 86 84 82 82 75 24 11 22 23 18 13 16 23 20 17 17 19 23 20 18 26 27 32 27 28 34 35 49 48 59 58 68 66 64 63 63
82 82 81 81 81 83 88 89 87 83 81 80 82 62 29 27 24 18 14 13 12 16 17 10 15 19 17 20 25 29 33 32 31 27 33 34 40 36 58 56 62 66 65 63 62
82 82 82 81 81 84 91 90 82 82 76 64 51 58 28 21 21 12 17 10 11 17 15 14 19 20 21 23 30 29 24 22 28 30 34 38 31 54 62 55 60 62 63 63 60
82 82 82 81 81 83 95 68 31 43 66 13 14 26 22 18 17 11 10 11 15 16 24 21 20 22 20 21 20 22 24 23 23 20 25 26 25 26 65 60 59 59 57 59 62
81 82 82 81 82 84 96 46 36 38 31 32 27 24 23 23 19 9 10 14 19 24 24 22 24 19 18 18 19 23 26 22 18 21 23 29 22 24 64 60 57 61 57 55 56
81 82 82 81 84 92 78 40 38 36 36 24 32 28 22 20 16 12 11 17 20 22 23 24 20 17 18 19 21 24 21 18 15 18 22 26 27 31 38 60 57 55 56 54 56
82 82 82 83 81 77 57 50 54 36 39 24 30 18 19 17 16 11 11 15 21 20 21 23 19 19 22 19 20 43 14 15 24 24 25 25 33 35 34 42 52 47 53 51 55
82 82 87 86 93 73 48 60 43 32 45 27 25 17 18 14 17 16 15 15 20 21 21 20 21 21 19 16 14 12 13 24 27 29 45 32 31 32 49 31 34 43 50 49 54
84 84 85 91 94 79 68 60 32 32 41 26 16 18 17 17 15 17 16 15 18 20 23 20 19 18 16 14 11 15 18 26 43 39 35 42 36 43 82 76 58 57 42 51 53
90 87 85 71 40 70 61 32 31 40 27 24 21 18 17 18 17 19 18 21 22 32 28 20 20 19 14 16 16 20 24 32 35 50 39 50 58 71 63 62 71 78 63 55 53
91 88 92 82 89 78 40 33 53 26 34 31 22 21 17 18 22 20 21 22 23 23 28 27 28 24 17 14 16 29 30 29 39 41 36 45 64 61 60 60 69 69 71 69 73
91 96 98 82 85 81 34 44 31 32 32 25 22 21 26 23 20 23 21 22 18 19 21 34 30 20 21 16 15 26 28 25 38 53 46 53 56 56 56 64 77 71 64 69 69
96 90 70 68 68 46 39 52 36 29 28 26 25 23 24 23 22 24 24 20 20 18 23 32 32 25 19 16 16 31 22 28 36 43 60 54 57 74 70 68 78 87 87 87 87
89 52 50 62 54 41 46 43 34 27 24 23 28 33 29 32 23 23 22 25 22 25 24 30 33 23 19 21 26 17 20 36 39 48 51 56 54 55 62 68 83 86 89 90 86
78 48 50 46 40 72 48 43 38 26 22 22 26 35 36 35 32 33 28 28 24 24 26 38 31 38 27 21 22 22 27 35 33 44 60 55 56 68 79 79 82 86 82 83 85
69 56 43 38 41 48 45 34 29 25 27 26 29 30 38 39 35 30 28 26 30 23 29 29 29 33 25 21 22 24 26 33 37 36 52 52 53 83 90 88 86 85 84 84 81
61 46 44 47 56 53 54 38 33 23 26 29 28 24 27 29 29 32 26 20 28 32 54 37 30 27 28 27 31 32 28 25 30 28 34 50 66 95 93 89 82 82 82 81 80
66 64 60 49 46 57 58 40 33 31 27 28 26 28 27 36 29 29 24 24 21 41 28 23 30 45 34 29 32 33 33 36 26 28 24 28 72 90 90 80 76 83 78 72 70
81 56 63 63 68 65 62 50 35 32 34 32 29 29 30 32 32 26 23 29 29 20 31 31 37 55 34 31 34 34 40 37 51 53 83 87 89 78 77 83 86 84 74 72 70
91 75 63 65 57 48 42 36 30 34 27 29 26 27 24 27 26 28 26 22 29 19 24 30 38 34 31 39 35 37 47 47 59 61 78 84 75 57 58 71 73 66 61 61 60
Wind_Speed
12 12 13 13 13 13 14 14 14 14 14 16 17 17 17 17 16 3 5 6 5 5 2 5 3 2 4 3 3 3 4 1 3 6 3 7 7 2 3 5 3 1 4 8 17
12 13 13 13 13 14 14 14 14 14 15 16 16 17 17 17 3 4 8 7 6 3 0 3 5 3 2 2 2 4 3 7 6 5 5 13 5 6 4 3 2 4 11 18 17
13 13 13 13 13 14 14 14 15 14 15 15 16 17 16 11 5 5 2 9 7 2 3 1 2 2 3 1 4 3 5 5 4 6 7 8 3 2 8 4 6 12 17 16 16
13 13 14 14 14 14 14 14 15 15 15 15 16 16 18 2 3 3 5 7 6 3 1 3 6 5 3 2 2 1 3 5 3 5 7 10 9 4 6 4 9 15 20 16 16
13 13 13 14 14 14 14 14 14 14 15 15 15 15 5 3 10 4 4 6 2 0 2 3 5 3 4 3 2 3 2 4 5 5 4 10 7 4 5 4 15 15 15 16 15
13 14 14 14 14 14 14 14 14 14 14 14 14 13 2 3 3 5 8 2 1 2 2 1 2 2 1 3 2 4 4 5 5 5 2 5 4 6 2 13 14 18 14 13 15
14 14 14 14 14 14 14 15 15 14 13 11 10 3 1 15 2 7 4 2 3 1 4 2 2 2 2 5 3 4 2 4 3 6 4 6 1 5 8 13 16 15 14 12 12
15 15 14 14 14 14 14 15 16 14 11 9 5 1 8 5 5 9 1 3 2 4 3 4 2 3 2 4 7 5 6 4 5 7 1 7 9 6 13 16 15 14 13 14 15
15 16 15 14 13 14 14 16 16 12 8 5 1 2 11 9 3 3 4 1 2 1 3 1 5 4 6 3 6 8 2 3 8 6 5 5 7 3 13 13 14 14 13 13 13
16 15 15 13 13 14 16 16 4 2 2 3 2 3 5 1 3 1 2 2 2 3 5 8 6 4 5 5 2 3 4 5 4 3 3 5 11 4 10 13 15 14 12 12 13
16 15 14 12 11 11 9 2 4 2 0 8 5 4 5 9 4 2 4 4 3 10 2 5 6 3 5 3 3 3 3 5 7 6 5 7 6 5 9 7 9 10 12 12 15
16 14 12 11 9 7 1 2 2 2 6 7 3 7 6 3 3 1 3 4 4 2 3 6 3 6 4 4 4 3 2 5 6 2 5 1 8 6 11 14 16 13 13 14 11
16 13 11 9 7 2 2 6 4 5 2 6 5 5 5 7 3 3 6 3 3 4 3 5 4 2 0 4 2 3 4 4 7 4 4 3 9 3 1 4 5 7 8 9 12
15 13 10 7 3 1 4 2 5 5 5 4 3 6 4 3 2 4 5 5 2 5 5 4 3 1 1 5 7 2 6 5 2 4 2 3 5 5 7 5 10 8 10 12 9
15 12 6 2 2 2 0 7 3 3 4 3 3 1 1 7 1 1 3 5 5 3 5 7 3 2 4 3 5 8 4 2 3 4 4 3 5 7 8 6 5 7 10 11 5
14 9 2 2 2 7 6 5 3 7 1 3 4 5 5 1 2 2 3 5 1 2 0 7 2 3 7 2 6 3 4 8 6 4 3 4 4 5 4 6 10 9 6 9 11
10 7 5 1 3 4 4 3 6 4 2 4 4 4 4 3 2 2 6 4 4 3 4 6 4 4 3 1 3 3 7 4 5 6 3 4 4 8 7 6 7 10 6 5 8
12 5 5 5 2 6 2 6 2 3 4 1 3 4 5 5 1 3 5 2 1 5 2 1 7 2 1 6 5 3 7 7 3 3 2 3 1 4 4 6 7 6 5 8 10
3 1 3 5 9 1 6 3 6 4 2 2 3 5 0 2 4 2 6 7 7 10 7 4 5 4 1 2 6 2 1 4 8 3 4 1 3 3 6 7 8 9 11 10 9
1 0 3 3 8 4 6 5 4 4 4 1 4 4 6 5 5 4 5 3 4 7 3 3 1 2 5 3 6 4 5 3 4 2 2 2 3 5 3 3 7 8 9 9 8
1 4 4 2 1 6 3 7 6 7 5 4 2 4 3 4 6 6 8 0 1 2 4 4 4 4 4 6 2 5 4 7 6 3 6 4 6 3 6 4 3 4 5 6 7
2 4 3 1 5 1 3 5 5 5 3 3 3 3 6 5 4 3 4 1 6 4 4 2 5 2 1 3 1 2 3 4 6 3 1 3 5 3 6 6 6 4 3 3 5
3 2 3 3 3 2 5 5 4 4 4 3 2 2 1 3 4 2 3 1 4 4 3 5 3 3 7 8 5 5 3 5 5 3 5 6 6 4 5 6 4 5 4 4 5
3 4 4 5 0 3 2 5 4 6 3 2 3 4 5 5 5 4 3 3 3 4 6 8 4 6 7 5 3 4 4 3 4 3 4 6 6 4 7 11 6 5 4 4 5
4 1 2 3 3 3 0 3 3 4 3 6 5 5 4 4 3 3 3 1 5 4 5 5 4 1 2 3 2 3 2 5 5 5 6 4 7 5 8 9 7 6 4 5 4
3 2 3 1 1 3 2 2 2 1 3 3 5 3 3 5 3 6 5 2 3 4 3 3 2 2 2 2 3 4 4 5 1 3 4 5 2 4 6 6 6 6 6 4 2
3 2 3 3 2 3 3 5 3 1 6 5 7 5 7 2 4 2 2 2 1 6 3 3 7 4 5 3 5 4 4 3 3 3 5 4 5 4 4 5 6 7 7 7 6
Wind_Direction
338 338 339 337 337 337 335 334 334 336 334 331 330 327 325 325 316 156 248 215 170 180 199 281 178 169 111 174 181 118 59 127 212 162 196 152 176 124 115 126 90 356 139 134 135
338 335 334 333 333 332 333 331 332 334 333 332 329 327 325 332 316 257 255 147 148 216 355 343 320 354 85 154 195 105 114 218 193 185 184 170 154 159 140 136 118 90 95 127 135
335 334 331 330 329 328 328 328 328 331 330 330 328 326 323 328 336 252 161 164 145 136 193 222 256 148 78 113 192 158 176 205 233 202 139 143 124 203 118 245 195 165 146 143 145
334 332 329 327 326 324 323 322 324 326 327 328 328 325 321 310 260 74 114 121 135 178 299 353 1 35 53 29 315 296 237 172 245 201 140 149 147 203 195 275 150 160 154 152 163
333 329 327 324 322 320 318 319 319 320 322 326 328 330 346 0 253 337 157 132 128 137 41 27 24 23 26 319 315 84 335 240 224 201 175 134 176 210 197 87 123 137 157 169 175
331 328 325 322 318 316 315 314 314 314 318 322 327 321 1 267 243 30 7 72 111 23 1 42 2 273 85 324 59 307 252 247 182 208 225 140 144 143 104 137 133 151 174 182 182
329 328 324 321 317 314 312 309 309 308 311 314 322 337 64 233 10 334 311 132 174 164 317 241 199 70 27 331 334 278 315 350 215 176 178 122 130 225 146 154 153 171 181 189 196
328 326 323 321 316 313 310 306 304 301 299 299 306 12 249 256 312 307 187 330 242 252 219 251 210 88 55 322 12 33 43 4 284 130 240 121 263 193 158 154 169 179 183 193 203
327 325 323 321 317 315 309 303 297 289 281 262 290 82 269 317 285 266 153 197 285 289 207 139 78 76 18 59 21 9 344 301 314 190 134 147 261 146 168 163 176 183 192 200 210
327 325 323 322 321 320 309 297 272 324 209 201 265 0 276 331 281 281 160 113 61 320 28 43 50 48 34 62 218 301 340 315 262 298 124 189 260 130 179 179 182 190 192 203 207
327 325 323 322 323 328 345 53 30 346 283 191 194 247 290 301 286 216 148 108 67 52 76 8 52 233 231 175 164 193 200 248 262 266 179 203 249 209 187 198 185 187 198 204 216
328 325 322 320 320 322 337 161 185 214 313 223 249 283 267 235 294 127 118 112 77 148 90 25 227 227 206 168 183 160 318 288 284 281 154 78 275 261 177 211 204 191 195 205 215
331 325 321 317 317 321 215 229 26 19 102 295 187 210 232 148 196 219 115 118 126 135 170 164 235 15 341 286 295 240 196 232 232 359 36 64 313 323 283 258 210 211 216 217 203
330 325 319 314 324 226 247 287 310 189 64 266 259 275 144 153 292 194 176 133 51 202 165 240 293 260 240 254 147 278 204 220 134 78 208 52 273 13 320 271 224 199 199 216 186
329 323 312 255 295 197 69 333 112 68 84 150 198 93 58 142 202 136 209 60 162 186 93 257 218 266 328 215 182 223 149 65 54 91 68 3 85 288 348 13 280 237 213 206 155
330 322 249 177 236 248 318 315 61 43 131 178 133 156 117 35 18 71 93 63 119 180 11 238 270 227 218 226 187 94 73 40 47 74 42 318 125 311 330 291 300 310 251 160 149
326 304 198 194 226 322 302 68 43 133 294 177 167 152 114 158 223 140 136 170 178 84 337 326 257 271 163 130 21 90 55 346 14 16 194 286 53 244 285 331 300 316 351 115 120
315 220 231 237 311 350 70 52 185 212 232 357 107 89 151 160 282 75 98 186 147 89 106 155 333 241 199 184 180 59 141 155 199 196 251 11 28 286 354 3 348 351 49 74 82
105 151 265 256 204 342 77 84 222 214 294 114 86 96 178 109 130 113 167 195 215 172 182 156 281 317 358 167 119 176 124 176 105 4 79 253 328 322 31 0 359 18 45 44 51
249 55 271 103 160 91 76 242 256 228 299 122 156 147 175 190 137 147 186 207 254 182 145 199 32 351 308 62 33 109 143 48 14 136 131 272 200 221 228 326 359 26 34 51 54
76 64 322 80 180 51 160 236 271 254 222 166 223 122 165 151 155 178 189 178 148 44 131 131 115 288 41 25 340 1 19 51 111 100 153 158 255 214 187 148 125 21 45 52 55
115 66 318 6 57 18 190 211 278 279 261 268 116 107 164 144 126 157 164 40 342 175 88 97 131 82 145 297 213 20 102 113 116 228 71 141 254 26 123 141 134 113 83 59 65
85 124 314 65 126 293 289 284 264 307 351 344 97 88 85 105 112 116 108 318 55 66 135 175 33 49 359 351 9 43 350 95 95 75 190 137 246 103 108 114 112 123 91 80 77
92 84 336 47 102 146 316 284 291 299 266 66 45 99 88 44 11 130 109 22 29 105 76 82 91 150 183 201 181 309 333 60 104 110 176 223 160 180 155 149 154 141 114 89 66
28 203 184 220 287 204 119 292 315 304 2 17 20 49 139 103 71 75 45 51 20 356 63 94 120 183 185 223 217 235 283 310 206 186 164 252 197 160 165 165 159 135 125 91 71
93 90 10 147 311 146 160 248 252 77 348 5 91 350 50 107 158 171 146 169 176 31 76 358 133 82 295 300 324 270 6 326 84 110 86 132 82 134 130 116 128 151 148 141 67
337 338 108 296 20 108 202 271 303 170 39 72 129 77 60 97 164 125 83 130 155 151 112 80 129 99 260 4 338 334 308 287 52 45 140 154 204 134 83 119 132 124 124 134 143